SCP
0 0 0 0 0 0 0 0 0 0 0 0 0 0 0 0 0 0 0 0 0 0 1 1 0 0 0 1 1 1 1 0 0 0 0 0 0 0 0 0 0 0 0
0 0 0 0 0 0 0 0 0 0 0 0 0 0 0 0 0 0 0 0 0 0 0 1 1 1 1 0 1 1 1 1 0 0 0 0 0 0 0 0 0 0 0
0 0 0 0 0 0 0 0 0 0 0 0 0 0 0 0 0 0 0 0 0 0 0 0 0 1 1 1 1 1 1 1 1 0 0 0 0 0 0 0 0 0 0
0 0 0 0 0 0 0 0 0 0 0 0 0 0 0 0 0 0 0 0 0 0 0 0 0 1 1 1 1 1 1 1 1 1 0 0 0 0 0 0 0 0 0
0 0 0 0 0 0 0 0 0 0 0 0 0 0 0 0 0 0 0 0 0 0 0 0 0 0 0 1 1 1 1 1 1 1 1 0 0 0 0 0 0 0 0
0 0 0 0 0 0 0 0 0 0 0 0 0 0 0 0 0 0 0 0 0 0 0 0 0 0 0 0 1 1 1 1 1 1 0 1 1 1 0 0 0 0 0
0 0 0 0 0 0 0 0 0 0 0 0 0 0 0 0 0 0 0 0 0 0 0 0 0 0 0 0 0 1 1 1 0 0 0 1 1 0 1 1 0 0 0
0 0 0 0 0 0 0 0 0 0 0 0 0 0 -0 0 0 0 0 0 0 0 0 0 0 0 0 0 0 0 0 0 0 0 0 0 0 0 0 0 0 0 0
0 0 0 0 0 0 0 0 0 0 0 0 0 0 0 0 0 0 0 0 0 0 0 0 0 0 0 0 0 0 0 0 0 0 0 0 0 0 0 0 0 0 0
0 0 0 0 0 0 0 0 0 0 0 0 0 0 0 0 0 0 0 0 0 0 0 0 0 0 0 0 0 0 0 0 0 0 0 0 0 0 0 0 0 0 0
0 0 0 0 0 0 0 0 0 0 0 0 0 0 0 0 0 0 0 0 0 0 0 0 0 0 0 0 0 0 0 0 0 0 0 0 0 0 0 0 0 0 0
0 0 0 0 0 0 0 0 0 0 0 0 0 0 0 0 0 0 0 0 0 0 0 0 0 0 0 0 0 0 0 0 0 0 0 0 0 0 0 -0 -0 0 0
0 0 0 0 0 0 0 0 0 0 0 0 0 0 0 0 0 0 0 0 0 0 0 0 -0 0 0 0 0 0 0 0 0 0 0 0 0 0 0 0 0 0 0
0 0 0 0 0 0 0 0 0 0 0 0 0 0 0 0 0 0 0 0 0 0 0 0 -0 0 0 0 0 0 0 0 0 0 0 0 0 0 0 0 0 0 0
0 0 0 0 0 0 0 0 0 0 0 0 0 0 0 0 0 0 0 0 0 0 0 0 0 -0 0 0 0 0 0 0 0 0 0 0 0 0 0 0 0 0 0
0 0 0 0 0 0 0 0 0 0 0 0 0 0 0 0 0 0 0 0 0 0 0 0 0 0 -0 0 0 0 0 0 0 0 0 0 0 0 0 0 0 0 0
0 0 0 0 0 0 0 0 0 0 0 0 0 0 0 0 0 0 0 0 -0 0 0 0 0 0 0 0 0 0 0 0 0 0 0 0 0 0 0 0 0 0 0
0 0 0 0 0 0 0 0 0 0 0 0 0 0 0 0 0 0 -0 -0 0 0 0 0 0 0 0 0 0 0 0 0 0 0 0 0 0 0 0 0 0 0 0
0 0 0 0 0 0 0 0 0 0 0 0 0 0 -0 -0 -0 -0 -0 0 0 0 0 0 0 0 0 0 0 0 0 0 0 0 0 0 0 0 0 0 0 0 0
0 0 0 0 0 0 0 0 0 0 0 0 0 0 -0 -0 0 -0 -0 0 -0 0 -0 0 0 0 0 0 0 0 0 0 0 0 0 0 0 0 0 0 0 0 0
0 0 0 0 0 0 0 0 0 0 0 0 0 -0 -0 -0 -0 -0 -0 0 0 -0 0 0 0 0 0 0 0 0 0 0 0 0 0 0 0 0 0 0 0 0 0
0 0 0 0 0 0 0 0 0 0 0 0 -0 -0 -0 -0 0 -0 -0 0 0 0 0 0 0 0 0 0 0 0 0 0 0 0 0 0 0 0 0 0 0 0 0
0 0 0 0 0 0 0 0 0 0 0 0 0 0 -0 -0 -0 0 -0 0 0 0 0 0 0 0 0 0 0 0 0 0 0 0 0 0 0 0 0 0 0 0 0
0 0 0 0 0 0 0 0 0 0 0 0 0 0 0 0 0 -0 -0 0 0 0 0 0 0 0 0 0 0 0 0 0 0 0 0 0 0 0 0 0 0 0 0
0 0 0 0 0 0 0 0 0 0 0 0 0 0 0 0 -0 -0 0 0 0 0 0 0 0 0 0 0 0 0 0 0 0 0 0 0 0 0 0 0 0 0 0
0 0 0 0 0 0 0 0 0 0 0 0 0 0 0 0 0 -0 0 0 0 0 0 0 0 0 0 0 0 0 -0 -0 0 0 0 0 0 0 0 0 0 0 0
Wind_Speed_500mb
52 52 50 49 50 48 51 53 52 51 52 52 55 62 68 67 67 67 57 59 71 72 76 83 82 81 78 73 68 65 61 61 64 70 72 72 72 73 66 63 65 61 55
56 55 51 47 44 44 46 49 51 53 53 53 56 56 62 69 74 73 72 78 66 74 76 80 84 89 86 85 78 70 66 62 65 69 73 78 78 77 77 72 66 69 64
55 50 48 46 42 39 44 45 45 46 50 51 54 56 58 61 68 74 78 74 78 86 69 79 81 80 90 91 87 78 73 67 69 72 73 77 79 83 83 80 76 76 75
53 46 41 40 40 43 44 44 45 49 48 50 53 54 57 61 62 65 70 81 78 78 92 80 85 85 83 94 95 85 80 76 74 76 74 78 80 83 87 90 88 85 82
43 40 38 35 35 39 40 42 49 53 54 54 56 59 58 57 61 64 69 80 79 77 77 66 79 90 89 90 94 91 86 83 79 76 74 76 80 83 85 89 94 95 92
38 34 33 33 33 37 36 37 40 46 49 54 58 63 64 67 68 69 74 79 76 78 80 85 59 74 88 86 92 96 92 94 90 81 80 74 77 81 87 94 99 101 102
33 34 32 31 35 40 40 37 35 41 45 49 55 60 61 64 68 67 66 72 76 75 81 86 85 87 94 84 76 89 100 102 102 90 83 81 74 80 80 88 98 109 108
36 38 38 40 44 44 42 41 34 38 41 36 39 49 41 56 48 43 49 51 55 65 78 81 83 85 81 79 86 82 89 94 91 85 84 75 87 79 73 97 108 128 118
37 38 38 40 43 41 38 34 31 35 44 39 31 29 23 18 47 20 37 47 50 55 62 75 75 80 78 96 85 80 87 80 85 86 84 89 93 98 96 96 107 97 104
32 35 39 41 43 43 45 44 42 43 42 48 46 42 52 61 45 46 50 46 54 54 47 60 68 76 79 79 92 95 79 77 84 85 93 90 88 93 86 82 72 102 81
32 33 34 37 39 41 44 48 48 47 45 45 45 50 55 58 66 63 61 55 65 73 71 57 42 56 69 78 79 85 87 74 77 84 96 86 88 89 87 85 89 89 108
27 29 32 33 33 36 39 43 43 45 50 50 52 47 51 54 50 55 56 59 56 62 65 74 73 64 57 69 78 82 84 88 87 82 88 90 88 80 87 93 88 88 80
26 28 31 33 33 34 37 41 45 47 49 53 53 54 57 60 63 67 75 83 70 65 68 68 56 50 55 57 69 83 87 83 94 86 87 95 86 80 78 76 87 96 96
29 29 32 33 33 33 37 40 45 50 54 55 56 58 63 63 60 62 65 68 71 70 68 58 63 53 54 46 51 72 76 79 82 79 79 79 78 72 71 73 78 86 110
30 30 32 34 31 31 35 42 48 49 53 58 62 63 65 64 65 64 62 60 59 44 55 58 25 31 41 43 41 56 58 68 80 76 73 70 73 65 65 75 71 71 66
29 32 31 33 36 38 44 48 50 51 56 59 61 62 63 66 65 60 63 62 58 60 56 56 28 24 25 33 41 46 43 49 51 49 49 50 56 62 57 54 49 37 39
30 31 32 34 36 41 46 51 55 54 55 55 54 56 55 54 53 55 61 57 60 55 53 37 23 27 25 16 18 29 48 40 39 53 58 57 65 67 59 51 43 42 42
29 32 34 38 39 41 43 48 49 45 48 49 47 44 42 41 46 46 52 53 55 45 51 46 30 39 33 24 22 22 29 47 40 52 55 69 69 64 56 52 49 43 45
27 29 31 34 34 36 40 41 42 40 39 40 40 37 34 37 41 38 38 33 43 34 46 53 53 45 42 32 27 28 36 49 54 50 46 52 59 61 67 60 57 52 55
23 25 25 28 31 32 36 39 38 34 33 33 32 33 31 30 30 33 33 31 32 30 30 37 42 38 41 43 37 28 38 49 56 52 46 41 39 35 34 38 40 39 43
20 21 22 24 25 27 30 34 34 31 29 25 24 25 27 28 34 36 32 28 32 34 30 36 37 40 43 42 41 35 39 46 51 50 46 44 44 43 40 37 39 39 41
16 18 19 21 22 23 27 30 33 35 31 26 23 22 22 26 30 33 34 33 27 31 33 37 42 41 42 39 35 37 42 41 51 54 51 52 49 47 45 43 44 43 44
14 16 16 18 20 23 24 25 26 25 27 27 24 17 15 19 21 18 18 23 34 38 34 35 37 36 38 37 39 43 48 47 52 45 30 51 53 52 49 46 40 39 41
18 20 20 21 21 22 21 21 22 23 24 24 23 22 23 22 26 28 21 19 15 11 14 25 25 24 22 28 31 33 38 38 37 36 32 33 36 40 40 39 35 35 27
24 25 25 25 25 23 23 22 20 19 19 20 20 20 20 18 17 20 21 23 20 18 16 12 9 12 11 8 2 9 20 26 24 17 16 10 12 13 14 18 21 24 30
28 28 28 29 27 24 23 23 22 20 18 18 17 16 16 17 19 18 17 14 12 13 12 13 13 11 11 12 10 12 12 14 8 10 11 12 10 5 7 18 23 27 28
Wind_Direction_500mb
317 311 303 297 295 292 289 288 285 281 278 273 263 259 255 252 249 250 251 256 253 250 250 251 251 249 246 244 249 250 249 247 245 241 238 238 241 239 244 246 248 247 245
315 310 303 298 296 295 291 287 287 286 282 278 275 269 264 260 256 254 253 252 257 256 252 250 252 251 248 246 244 246 249 248 247 245 242 239 240 242 245 248 250 248 249
310 305 298 295 294 291 290 293 291 287 286 285 280 276 273 268 264 261 256 254 253 256 261 255 254 252 247 246 245 245 244 247 248 246 248 245 244 244 244 247 247 248 249
305 302 296 292 290 291 294 296 297 290 288 286 285 282 278 274 270 265 264 256 254 253 253 261 258 255 250 246 247 246 247 244 244 246 247 247 248 249 249 248 249 248 247
302 298 297 294 289 286 286 291 291 293 292 287 284 283 279 274 271 269 265 262 256 255 255 264 260 255 251 250 247 247 248 247 243 242 245 247 249 252 252 252 250 248 247
299 296 297 298 296 293 290 288 295 296 293 292 291 286 282 278 276 271 268 270 266 255 252 249 263 265 251 248 247 246 247 247 246 238 240 246 251 254 255 254 253 251 246
303 299 297 291 284 284 287 282 283 293 298 297 301 295 288 283 284 282 280 276 272 264 254 253 257 263 260 253 254 247 248 240 246 232 232 236 247 254 257 260 256 251 249
301 304 299 296 293 292 287 285 283 292 294 302 302 311 309 303 303 299 292 283 276 268 258 253 254 256 259 273 257 254 256 248 252 249 251 248 248 247 258 253 255 244 242
300 301 299 296 295 297 295 292 287 286 292 295 289 280 307 292 315 321 309 283 278 274 262 254 254 254 258 256 257 256 255 256 250 251 239 249 252 246 250 255 260 236 232
295 292 294 300 300 299 296 294 284 276 274 280 284 278 263 275 297 296 282 275 287 293 299 270 261 256 252 251 252 253 258 257 254 253 246 253 251 253 257 255 270 222 227
291 299 299 297 296 295 292 290 285 279 280 276 279 280 279 273 265 285 293 286 284 284 284 281 285 272 258 257 249 248 249 249 254 249 251 243 247 252 250 250 263 267 248
301 295 291 291 297 297 294 293 290 284 284 279 273 278 279 277 279 285 298 297 303 291 285 279 281 280 275 256 251 250 247 245 251 243 248 244 250 256 256 261 255 265 224
299 299 303 306 306 305 304 299 296 297 292 286 277 276 276 275 273 272 277 282 292 303 284 282 285 285 268 266 256 250 253 253 248 247 251 244 255 256 254 252 251 242 258
302 310 309 308 307 307 312 308 303 302 298 289 283 277 278 273 274 277 274 279 286 286 290 289 286 282 271 265 270 258 254 251 251 252 252 252 252 248 256 257 250 254 242
304 309 309 306 300 298 298 295 293 294 293 289 285 279 274 274 272 272 274 270 274 275 280 286 289 305 280 268 276 275 258 254 255 252 247 246 246 251 250 246 252 251 245
303 306 310 304 300 300 296 293 292 291 288 286 287 285 278 274 276 276 277 264 268 271 268 264 273 315 338 295 277 270 259 261 256 238 222 235 242 248 241 219 220 222 221
300 302 304 301 300 297 296 295 294 295 292 293 292 290 284 283 277 273 274 275 260 261 261 263 290 267 270 316 297 272 257 237 237 222 210 222 233 234 216 217 222 229 238
309 309 305 304 308 310 312 306 302 296 289 295 298 293 286 280 279 278 274 266 256 259 251 274 272 265 258 264 269 264 265 249 231 217 220 219 202 202 215 218 223 224 216
318 317 315 319 320 318 312 311 310 308 299 298 297 290 286 282 282 285 278 282 257 261 241 266 272 266 258 267 273 293 296 248 237 230 206 194 193 193 206 213 217 215 221
333 339 340 335 330 325 327 327 326 317 305 296 292 295 293 286 286 283 284 285 273 269 264 273 266 263 265 267 262 263 286 247 231 229 231 224 222 217 200 198 203 207 217
357 5 3 360 358 2 3 1 356 339 322 309 297 295 293 295 295 292 292 286 275 276 283 281 276 268 269 267 263 276 281 252 237 235 233 232 230 228 227 224 225 226 229
359 1 357 356 2 7 13 10 11 10 3 347 332 318 316 305 299 297 295 293 281 279 277 278 275 277 270 270 272 273 274 252 240 239 239 239 237 235 238 238 236 235 237
335 338 341 342 342 351 1 355 354 360 14 20 15 7 4 359 349 335 327 303 291 291 283 280 280 278 276 272 268 262 262 254 240 242 251 243 242 241 241 237 232 234 231
315 318 321 323 329 334 342 347 349 351 1 5 5 13 23 27 26 21 23 28 25 347 300 289 293 290 290 278 263 248 258 250 240 237 243 250 244 235 233 231 223 224 219
298 301 306 310 313 320 325 330 336 337 346 356 0 3 5 5 6 24 26 21 26 33 40 43 16 350 346 343 123 192 220 212 217 207 204 184 220 215 222 226 222 225 229
288 291 295 298 301 305 308 314 320 324 329 337 344 354 3 5 0 2 4 358 2 15 22 35 25 16 33 46 64 95 160 180 176 171 205 224 252 249 244 250 244 244 244
Wind_Speed_850mb
52 52 50 49 50 48 51 53 52 51 52 52 55 62 68 67 67 67 57 59 71 72 76 83 82 81 78 73 68 65 61 61 64 70 72 72 72 73 66 63 65 61 55
56 55 51 47 44 44 46 49 51 53 53 53 56 56 62 69 74 73 72 78 66 74 76 80 84 89 86 85 78 70 66 62 65 69 73 78 78 77 77 72 66 69 64
55 50 48 46 42 39 44 45 45 46 50 51 54 56 58 61 68 74 78 74 78 86 69 79 81 80 90 91 87 78 73 67 69 72 73 77 79 83 83 80 76 76 75
53 46 41 40 40 43 44 44 45 49 48 50 53 54 57 61 62 65 70 81 78 78 92 80 85 85 83 94 95 85 80 76 74 76 74 78 80 83 87 90 88 85 82
43 40 38 35 35 39 40 42 49 53 54 54 56 59 58 57 61 64 69 80 79 77 77 66 79 90 89 90 94 91 86 83 79 76 74 76 80 83 85 89 94 95 92
38 34 33 33 33 37 36 37 40 46 49 54 58 63 64 67 68 69 74 79 76 78 80 85 59 74 88 86 92 96 92 94 90 81 80 74 77 81 87 94 99 101 102
33 34 32 31 35 40 40 37 35 41 45 49 55 60 61 64 68 67 66 72 76 75 81 86 85 87 94 84 76 89 100 102 102 90 83 81 74 80 80 88 98 109 108
36 38 38 40 44 44 42 41 34 38 41 36 39 49 41 56 48 43 49 51 55 65 78 81 83 85 81 79 86 82 89 94 91 85 84 75 87 79 73 97 108 128 118
37 38 38 40 43 41 38 34 31 35 44 39 31 29 23 18 47 20 37 47 50 55 62 75 75 80 78 96 85 80 87 80 85 86 84 89 93 98 96 96 107 97 104
32 35 39 41 43 43 45 44 42 43 42 48 46 42 52 61 45 46 50 46 54 54 47 60 68 76 79 79 92 95 79 77 84 85 93 90 88 93 86 82 72 102 81
32 33 34 37 39 41 44 48 48 47 45 45 45 50 55 58 66 63 61 55 65 73 71 57 42 56 69 78 79 85 87 74 77 84 96 86 88 89 87 85 89 89 108
27 29 32 33 33 36 39 43 43 45 50 50 52 47 51 54 50 55 56 59 56 62 65 74 73 64 57 69 78 82 84 88 87 82 88 90 88 80 87 93 88 88 80
26 28 31 33 33 34 37 41 45 47 49 53 53 54 57 60 63 67 75 83 70 65 68 68 56 50 55 57 69 83 87 83 94 86 87 95 86 80 78 76 87 96 96
29 29 32 33 33 33 37 40 45 50 54 55 56 58 63 63 60 62 65 68 71 70 68 58 63 53 54 46 51 72 76 79 82 79 79 79 78 72 71 73 78 86 110
30 30 32 34 31 31 35 42 48 49 53 58 62 63 65 64 65 64 62 60 59 44 55 58 25 31 41 43 41 56 58 68 80 76 73 70 73 65 65 75 71 71 66
29 32 31 33 36 38 44 48 50 51 56 59 61 62 63 66 65 60 63 62 58 60 56 56 28 24 25 33 41 46 43 49 51 49 49 50 56 62 57 54 49 37 39
30 31 32 34 36 41 46 51 55 54 55 55 54 56 55 54 53 55 61 57 60 55 53 37 23 27 25 16 18 29 48 40 39 53 58 57 65 67 59 51 43 42 42
29 32 34 38 39 41 43 48 49 45 48 49 47 44 42 41 46 46 52 53 55 45 51 46 30 39 33 24 22 22 29 47 40 52 55 69 69 64 56 52 49 43 45
27 29 31 34 34 36 40 41 42 40 39 40 40 37 34 37 41 38 38 33 43 34 46 53 53 45 42 32 27 28 36 49 54 50 46 52 59 61 67 60 57 52 55
23 25 25 28 31 32 36 39 38 34 33 33 32 33 31 30 30 33 33 31 32 30 30 37 42 38 41 43 37 28 38 49 56 52 46 41 39 35 34 38 40 39 43
20 21 22 24 25 27 30 34 34 31 29 25 24 25 27 28 34 36 32 28 32 34 30 36 37 40 43 42 41 35 39 46 51 50 46 44 44 43 40 37 39 39 41
16 18 19 21 22 23 27 30 33 35 31 26 23 22 22 26 30 33 34 33 27 31 33 37 42 41 42 39 35 37 42 41 51 54 51 52 49 47 45 43 44 43 44
14 16 16 18 20 23 24 25 26 25 27 27 24 17 15 19 21 18 18 23 34 38 34 35 37 36 38 37 39 43 48 47 52 45 30 51 53 52 49 46 40 39 41
18 20 20 21 21 22 21 21 22 23 24 24 23 22 23 22 26 28 21 19 15 11 14 25 25 24 22 28 31 33 38 38 37 36 32 33 36 40 40 39 35 35 27
24 25 25 25 25 23 23 22 20 19 19 20 20 20 20 18 17 20 21 23 20 18 16 12 9 12 11 8 2 9 20 26 24 17 16 10 12 13 14 18 21 24 30
28 28 28 29 27 24 23 23 22 20 18 18 17 16 16 17 19 18 17 14 12 13 12 13 13 11 11 12 10 12 12 14 8 10 11 12 10 5 7 18 23 27 28
Wind_Direction_850mb
317 311 303 297 295 292 289 288 285 281 278 273 263 259 255 252 249 250 251 256 253 250 250 251 251 249 246 244 249 250 249 247 245 241 238 238 241 239 244 246 248 247 245
315 310 303 298 296 295 291 287 287 286 282 278 275 269 264 260 256 254 253 252 257 256 252 250 252 251 248 246 244 246 249 248 247 245 242 239 240 242 245 248 250 248 249
310 305 298 295 294 291 290 293 291 287 286 285 280 276 273 268 264 261 256 254 253 256 261 255 254 252 247 246 245 245 244 247 248 246 248 245 244 244 244 247 247 248 249
305 302 296 292 290 291 294 296 297 290 288 286 285 282 278 274 270 265 264 256 254 253 253 261 258 255 250 246 247 246 247 244 244 246 247 247 248 249 249 248 249 248 247
302 298 297 294 289 286 286 291 291 293 292 287 284 283 279 274 271 269 265 262 256 255 255 264 260 255 251 250 247 247 248 247 243 242 245 247 249 252 252 252 250 248 247
299 296 297 298 296 293 290 288 295 296 293 292 291 286 282 278 276 271 268 270 266 255 252 249 263 265 251 248 247 246 247 247 246 238 240 246 251 254 255 254 253 251 246
303 299 297 291 284 284 287 282 283 293 298 297 301 295 288 283 284 282 280 276 272 264 254 253 257 263 260 253 254 247 248 240 246 232 232 236 247 254 257 260 256 251 249
301 304 299 296 293 292 287 285 283 292 294 302 302 311 309 303 303 299 292 283 276 268 258 253 254 256 259 273 257 254 256 248 252 249 251 248 248 247 258 253 255 244 242
300 301 299 296 295 297 295 292 287 286 292 295 289 280 307 292 315 321 309 283 278 274 262 254 254 254 258 256 257 256 255 256 250 251 239 249 252 246 250 255 260 236 232
295 292 294 300 300 299 296 294 284 276 274 280 284 278 263 275 297 296 282 275 287 293 299 270 261 256 252 251 252 253 258 257 254 253 246 253 251 253 257 255 270 222 227
291 299 299 297 296 295 292 290 285 279 280 276 279 280 279 273 265 285 293 286 284 284 284 281 285 272 258 257 249 248 249 249 254 249 251 243 247 252 250 250 263 267 248
301 295 291 291 297 297 294 293 290 284 284 279 273 278 279 277 279 285 298 297 303 291 285 279 281 280 275 256 251 250 247 245 251 243 248 244 250 256 256 261 255 265 224
299 299 303 306 306 305 304 299 296 297 292 286 277 276 276 275 273 272 277 282 292 303 284 282 285 285 268 266 256 250 253 253 248 247 251 244 255 256 254 252 251 242 258
302 310 309 308 307 307 312 308 303 302 298 289 283 277 278 273 274 277 274 279 286 286 290 289 286 282 271 265 270 258 254 251 251 252 252 252 252 248 256 257 250 254 242
304 309 309 306 300 298 298 295 293 294 293 289 285 279 274 274 272 272 274 270 274 275 280 286 289 305 280 268 276 275 258 254 255 252 247 246 246 251 250 246 252 251 245
303 306 310 304 300 300 296 293 292 291 288 286 287 285 278 274 276 276 277 264 268 271 268 264 273 315 338 295 277 270 259 261 256 238 222 235 242 248 241 219 220 222 221
300 302 304 301 300 297 296 295 294 295 292 293 292 290 284 283 277 273 274 275 260 261 261 263 290 267 270 316 297 272 257 237 237 222 210 222 233 234 216 217 222 229 238
309 309 305 304 308 310 312 306 302 296 289 295 298 293 286 280 279 278 274 266 256 259 251 274 272 265 258 264 269 264 265 249 231 217 220 219 202 202 215 218 223 224 216
318 317 315 319 320 318 312 311 310 308 299 298 297 290 286 282 282 285 278 282 257 261 241 266 272 266 258 267 273 293 296 248 237 230 206 194 193 193 206 213 217 215 221
333 339 340 335 330 325 327 327 326 317 305 296 292 295 293 286 286 283 284 285 273 269 264 273 266 263 265 267 262 263 286 247 231 229 231 224 222 217 200 198 203 207 217
357 5 3 360 358 2 3 1 356 339 322 309 297 295 293 295 295 292 292 286 275 276 283 281 276 268 269 267 263 276 281 252 237 235 233 232 230 228 227 224 225 226 229
359 1 357 356 2 7 13 10 11 10 3 347 332 318 316 305 299 297 295 293 281 279 277 278 275 277 270 270 272 273 274 252 240 239 239 239 237 235 238 238 236 235 237
335 338 341 342 342 351 1 355 354 360 14 20 15 7 4 359 349 335 327 303 291 291 283 280 280 278 276 272 268 262 262 254 240 242 251 243 242 241 241 237 232 234 231
315 318 321 323 329 334 342 347 349 351 1 5 5 13 23 27 26 21 23 28 25 347 300 289 293 290 290 278 263 248 258 250 240 237 243 250 244 235 233 231 223 224 219
298 301 306 310 313 320 325 330 336 337 346 356 0 3 5 5 6 24 26 21 26 33 40 43 16 350 346 343 123 192 220 212 217 207 204 184 220 215 222 226 222 225 229
288 291 295 298 301 305 308 314 320 324 329 337 344 354 3 5 0 2 4 358 2 15 22 35 25 16 33 46 64 95 160 180 176 171 205 224 252 249 244 250 244 244 244